TimeMDT,TemperatureF,Dew PointF,Humidity,Sea Level PressureIn,VisibilityMPH,Wind Direction,Wind SpeedMPH,Gust SpeedMPH,PrecipitationIn,Events,Conditions,WindDirDegrees,DateUTC
12:00 AM,,,,,,South,3.5,,,,,180,2012-10-28 06:00:00
1:00 AM,-9999,-9999,N/A,-9999,-9999.0,SSW,1.2,-,N/A,,Unknown,210,2012-10-28 07:00:00
2:00 AM,-9999,-9999,N/A,-9999,-9999.0,East,1.2,-,N/A,,Unknown,80,2012-10-28 08:00:00
3:00 AM,-9999,-9999,N/A,-9999,-9999.0,East,1.2,-,N/A,,Unknown,90,2012-10-28 09:00:00
4:00 AM,-9999,-9999,N/A,-9999,-9999.0,NE,1.2,-,N/A,,Unknown,50,2012-10-28 10:00:00
5:00 AM,-9999,-9999,N/A,-9999,-9999.0,ENE,2.3,-,N/A,,Unknown,60,2012-10-28 11:00:00
6:00 AM,,,,,,East,3.5,,,,,80,2012-10-28 12:00:00
6:00 AM,-9999,-9999,N/A,-9999,-9999.0,East,3.5,-,N/A,,Unknown,80,2012-10-28 12:00:00
7:00 AM,-9999,-9999,N/A,-9999,-9999.0,ENE,3.5,-,N/A,,Unknown,70,2012-10-28 13:00:00
8:00 AM,-9999,-9999,N/A,-9999,-9999.0,East,3.5,-,N/A,,Unknown,80,2012-10-28 14:00:00
9:00 AM,-9999,-9999,N/A,-9999,-9999.0,East,3.5,-,N/A,,Unknown,90,2012-10-28 15:00:00
10:00 AM,-9999,-9999,N/A,-9999,-9999.0,East,3.5,-,N/A,,Unknown,80,2012-10-28 16:00:00
11:00 AM,-9999,-9999,N/A,-9999,-9999.0,East,3.5,-,N/A,,Unknown,100,2012-10-28 17:00:00
12:00 PM,-9999,-9999,N/A,-9999,-9999.0,ESE,3.5,-,N/A,,Unknown,110,2012-10-28 18:00:00
1:00 PM,-9999,-9999,N/A,-9999,-9999.0,ESE,4.6,-,N/A,,Unknown,120,2012-10-28 19:00:00
2:00 PM,-9999,-9999,N/A,-9999,-9999.0,ENE,3.5,-,N/A,,Unknown,60,2012-10-28 20:00:00
3:00 PM,-9999,-9999,N/A,-9999,-9999.0,ENE,4.6,-,N/A,,Unknown,60,2012-10-28 21:00:00
4:00 PM,-9999,-9999,N/A,-9999,-9999.0,East,4.6,-,N/A,,Unknown,90,2012-10-28 22:00:00
5:00 PM,-9999,-9999,N/A,-9999,-9999.0,ESE,5.8,-,N/A,,Unknown,110,2012-10-28 23:00:00
6:00 PM,,,,,,East,4.6,,,,,80,2012-10-29 00:00:00
6:00 PM,-9999,-9999,N/A,-9999,-9999.0,East,4.6,-,N/A,,Unknown,80,2012-10-29 00:00:00
7:00 PM,-9999,-9999,N/A,-9999,-9999.0,NE,3.5,-,N/A,,Unknown,40,2012-10-29 01:00:00
8:00 PM,-9999,-9999,N/A,-9999,-9999.0,ENE,6.9,-,N/A,,Unknown,60,2012-10-29 02:00:00
9:00 PM,-9999,-9999,N/A,-9999,-9999.0,NE,5.8,-,N/A,,Unknown,50,2012-10-29 03:00:00
10:00 PM,-9999,-9999,N/A,-9999,-9999.0,NE,6.9,-,N/A,,Unknown,50,2012-10-29 04:00:00
11:00 PM,-9999,-9999,N/A,-9999,-9999.0,ENE,8.1,-,N/A,,Unknown,70,2012-10-29 05:00:00